Location: Beckers Corners
(42.5484°N, 73.8110°W)
Time: 06:34:13
(UTC+00:00)

DIWATA 2B (PO-101) - Pass Details

Date: 07 December 2024
Orbit: 569 x 582 km, 98.1° (Epoch: 18 January)

Event Time Altitude Azimuth Distance (km) Brightness Sun altitude
Rises 22:25:32 0° 5° (N) 2,794 ? -11.4°
Reaches altitude 10° 22:27:46 10° 358° (N) 1,889 ? -11.8°
Maximum altitude 22:31:36 40° 289° (WNW) 846 ? -12.4°
Drops below altitude 10° 22:35:24 10° 219° (SW) 1,868 ? -13.1°
Sets 22:37:37 0° 212° (SSW) 2,759 ? -13.5°
